Dati Storici

Data ora Umidita' aria (%) Temperatura aria (°C) Rad globale (W/m²) Gonioanemometro (°) Tacoanemometro (m/s) Pioggia (mm)
19-06-2020 08:50 66.4 % 22.901 67.93 0.222 0 0
19-06-2020 08:40 66.8 % 23.569 138.874 0.686 0 0
19-06-2020 08:30 66.6 % 22.818 108.927 -0.035 0 0
19-06-2020 08:20 67.7 % 22.109 79.553 -0.037 0 0
19-06-2020 08:10 68.1 % 22.365 5.136 -0.035 0 0
19-06-2020 08:00 68.1 % 22.41 87.962 -0.033 0 0
19-06-2020 07:50 68.8 % 21.599 286.383 0.329 0 0
19-06-2020 07:40 70.4 % 21.695 339.852 0.338 0 0
19-06-2020 07:30 71.3 % 21.364 188.381 0.72 0 0
19-06-2020 07:20 73.3 % 20.88 199.06 0.248 0 0
19-06-2020 07:10 73 % 20.752 230.124 0.644 0 0
19-06-2020 07:00 75.7 % 20.81 337.316 0.767 0 0
19-06-2020 06:50 76.9 % 20.434 78.818 -0.032 0 0
19-06-2020 06:40 79.8 % 20.307 208.376 -0.031 0 0
19-06-2020 06:30 81.7 % 19.675 188.472 -0.023 0 0
19-06-2020 06:20 86.4 % 19.428 45.089 -0.021 0 0
19-06-2020 06:10 89.6 % 18.465 207.787 -0.016 0 0
19-06-2020 06:00 94.5 % 18.082 138.207 -0.014 0 0
19-06-2020 05:50 95.6 % 17.285 212.71 1.262 0 0
19-06-2020 05:40 97.6 % 17.395 114.518 0.546 0 0

I dati sono presentati in modo automatico a scopo informativo. In seguito a verifica i dati possono subire modifiche o essere invalidati e non riportati negli archivi definitivi.